TimeEST,TemperatureF,Dew PointF,Humidity,Sea Level PressureIn,VisibilityMPH,Wind Direction,Wind SpeedMPH,Gust SpeedMPH,PrecipitationIn,Events,Conditions,WindDirDegrees,DateUTC
12:15 AM,25.7,22.8,89,30.23,10.0,Calm,Calm,-,N/A,,Clear,0,2013-03-08 05:15:00
12:35 AM,25.5,22.1,87,30.23,10.0,Calm,Calm,-,N/A,,Clear,0,2013-03-08 05:35:00
12:55 AM,25.2,22.5,89,30.23,10.0,Calm,Calm,-,N/A,,Clear,0,2013-03-08 05:55:00
1:15 AM,24.8,21.7,88,30.23,10.0,Calm,Calm,-,N/A,,Clear,0,2013-03-08 06:15:00
1:35 AM,24.3,21.4,89,30.25,10.0,Calm,Calm,-,N/A,,Clear,0,2013-03-08 06:35:00
1:55 AM,23.5,21.0,90,30.25,10.0,Calm,Calm,-,N/A,,Clear,0,2013-03-08 06:55:00
2:15 AM,23.5,20.8,89,30.25,10.0,Calm,Calm,-,N/A,,Clear,0,2013-03-08 07:15:00
2:35 AM,23.4,21.0,91,30.25,10.0,Calm,Calm,-,N/A,,Clear,0,2013-03-08 07:35:00
2:55 AM,23.7,21.6,91,30.25,10.0,Calm,Calm,-,N/A,,Clear,0,2013-03-08 07:55:00
3:15 AM,22.5,20.1,91,30.24,10.0,Calm,Calm,-,N/A,,Clear,0,2013-03-08 08:15:00
3:35 AM,22.3,20.1,91,30.25,7.0,Calm,Calm,-,N/A,,Clear,0,2013-03-08 08:35:00
3:55 AM,22.6,20.3,91,30.25,10.0,Calm,Calm,-,N/A,,Clear,0,2013-03-08 08:55:00
4:15 AM,21.6,19.0,90,30.25,10.0,Calm,Calm,-,N/A,,Clear,0,2013-03-08 09:15:00
4:35 AM,21.9,19.6,91,30.25,10.0,Calm,Calm,-,N/A,,Clear,0,2013-03-08 09:35:00
4:55 AM,21.0,18.5,90,30.25,10.0,Calm,Calm,-,N/A,,Clear,0,2013-03-08 09:55:00
5:15 AM,21.6,19.2,91,30.26,10.0,Calm,Calm,-,N/A,,Clear,0,2013-03-08 10:15:00
5:35 AM,21.0,18.5,90,30.27,10.0,Calm,Calm,-,N/A,,Scattered Clouds,0,2013-03-08 10:35:00
5:55 AM,21.0,18.5,90,30.27,10.0,Calm,Calm,-,N/A,,Scattered Clouds,0,2013-03-08 10:55:00
6:15 AM,22.1,19.4,89,30.27,10.0,Calm,Calm,-,N/A,,Overcast,0,2013-03-08 11:15:00
6:35 AM,23.0,20.5,90,30.27,10.0,Calm,Calm,-,N/A,,Overcast,0,2013-03-08 11:35:00
6:55 AM,23.9,21.2,89,30.27,10.0,Calm,Calm,-,N/A,,Overcast,0,2013-03-08 11:55:00
7:15 AM,24.3,21.7,90,30.27,10.0,Calm,Calm,-,N/A,,Overcast,0,2013-03-08 12:15:00
7:35 AM,25.5,23.0,90,30.29,7.0,Calm,Calm,-,N/A,,Overcast,0,2013-03-08 12:35:00
7:55 AM,26.4,23.9,90,30.29,7.0,Calm,Calm,-,N/A,,Overcast,0,2013-03-08 12:55:00
8:15 AM,26.6,24.8,93,30.30,5.0,Calm,Calm,-,N/A,,Overcast,0,2013-03-08 13:15:00
8:35 AM,27.3,25.5,93,30.30,5.0,Calm,Calm,-,N/A,,Overcast,0,2013-03-08 13:35:00
8:55 AM,27.9,25.7,92,30.30,7.0,Calm,Calm,-,N/A,,Overcast,0,2013-03-08 13:55:00
9:15 AM,28.4,26.2,92,30.31,10.0,SW,3.5,-,N/A,,Overcast,230,2013-03-08 14:15:00
9:35 AM,29.5,26.8,90,30.30,10.0,Calm,Calm,-,N/A,,Overcast,0,2013-03-08 14:35:00
9:55 AM,31.1,27.5,87,30.30,10.0,Calm,Calm,-,N/A,,Mostly Cloudy,0,2013-03-08 14:55:00
10:15 AM,33.3,27.9,81,30.30,10.0,Calm,Calm,-,N/A,,Scattered Clouds,0,2013-03-08 15:15:00
10:35 AM,36.9,28.8,72,30.29,10.0,Calm,Calm,-,N/A,,Clear,0,2013-03-08 15:35:00
10:55 AM,37.9,27.9,67,30.28,10.0,Calm,Calm,-,N/A,,Clear,0,2013-03-08 15:55:00
11:15 AM,41.5,27.5,57,30.27,10.0,Calm,Calm,-,N/A,,Clear,0,2013-03-08 16:15:00
11:35 AM,45.0,25.0,46,30.27,10.0,Calm,Calm,-,N/A,,Clear,0,2013-03-08 16:35:00
11:55 AM,50.4,20.7,31,30.26,10.0,Calm,Calm,-,N/A,,Clear,0,2013-03-08 16:55:00
12:15 PM,52.7,8.2,17,30.25,10.0,North,4.6,-,N/A,,Clear,10,2013-03-08 17:15:00
12:35 PM,53.2,4.1,14,30.25,10.0,North,4.6,-,N/A,,Clear,360,2013-03-08 17:35:00
12:55 PM,54.7,7.7,15,30.25,10.0,NNW,5.8,-,N/A,,Clear,340,2013-03-08 17:55:00
1:15 PM,55.8,3.2,12,30.24,10.0,NW,10.4,-,N/A,,Clear,310,2013-03-08 18:15:00
1:35 PM,56.5,5.4,13,30.23,10.0,NW,6.9,-,N/A,,Clear,320,2013-03-08 18:35:00
1:55 PM,57.2,4.5,12,30.23,10.0,NNW,6.9,16.1,N/A,,Clear,330,2013-03-08 18:55:00
2:15 PM,58.3,9.1,14,30.21,10.0,NNW,10.4,-,N/A,,Clear,340,2013-03-08 19:15:00
2:35 PM,59.0,10.8,15,30.22,10.0,WNW,8.1,16.1,N/A,,Clear,300,2013-03-08 19:35:00
2:55 PM,59.5,8.4,13,30.21,10.0,NW,5.8,-,N/A,,Clear,310,2013-03-08 19:55:00
3:15 PM,59.4,9.0,14,30.20,10.0,WNW,6.9,-,N/A,,Clear,290,2013-03-08 20:15:00
3:35 PM,59.4,3.7,11,30.19,10.0,West,8.1,16.1,N/A,,Clear,280,2013-03-08 20:35:00
3:55 PM,59.9,5.9,12,30.19,10.0,NNW,4.6,-,N/A,,Clear,330,2013-03-08 20:55:00
4:15 PM,60.1,4.3,11,30.18,10.0,NW,6.9,-,N/A,,Clear,310,2013-03-08 21:15:00
4:35 PM,60.1,4.5,11,30.18,10.0,NW,4.6,-,N/A,,Clear,310,2013-03-08 21:35:00
4:55 PM,59.5,1.4,10,30.18,10.0,NW,6.9,-,N/A,,Clear,320,2013-03-08 21:55:00
5:15 PM,59.0,1.0,10,30.18,10.0,NW,8.1,-,N/A,,Clear,310,2013-03-08 22:15:00
5:35 PM,58.5,0.1,9,30.18,10.0,NW,5.8,-,N/A,,Clear,310,2013-03-08 22:35:00
5:55 PM,57.2,2.3,11,30.19,10.0,NNW,6.9,-,N/A,,Clear,330,2013-03-08 22:55:00
6:15 PM,55.4,1.6,11,30.19,10.0,NNW,5.8,-,N/A,,Clear,330,2013-03-08 23:15:00
6:35 PM,48.2,18.7,31,30.20,10.0,Calm,Calm,-,N/A,,Clear,0,2013-03-08 23:35:00
6:55 PM,42.4,25.0,50,30.21,10.0,WSW,3.5,-,N/A,,Clear,250,2013-03-08 23:55:00
7:15 PM,39.2,25.3,58,30.22,10.0,West,4.6,-,N/A,,Clear,260,2013-03-09 00:15:00
7:35 PM,38.7,24.6,57,30.23,10.0,SW,3.5,-,N/A,,Clear,220,2013-03-09 00:35:00
7:55 PM,37.4,23.9,58,30.24,10.0,Calm,Calm,-,N/A,,Clear,0,2013-03-09 00:55:00
8:15 PM,35.2,24.3,64,30.24,10.0,Calm,Calm,-,N/A,,Clear,0,2013-03-09 01:15:00
8:35 PM,35.1,23.9,64,30.25,10.0,Calm,Calm,-,N/A,,Clear,0,2013-03-09 01:35:00
8:55 PM,32.5,24.4,72,30.25,10.0,Calm,Calm,-,N/A,,Clear,0,2013-03-09 01:55:00
9:15 PM,31.8,25.7,78,30.25,10.0,Calm,Calm,-,N/A,,Clear,0,2013-03-09 02:15:00
9:35 PM,31.3,24.4,76,30.26,10.0,Calm,Calm,-,N/A,,Clear,0,2013-03-09 02:35:00
9:55 PM,30.7,25.7,82,30.26,10.0,Calm,Calm,-,N/A,,Clear,0,2013-03-09 02:55:00
10:15 PM,29.8,24.4,80,30.27,10.0,Calm,Calm,-,N/A,,Clear,0,2013-03-09 03:15:00
10:35 PM,29.8,24.4,80,30.27,10.0,Calm,Calm,-,N/A,,Clear,0,2013-03-09 03:35:00
10:55 PM,28.9,24.1,82,30.27,10.0,Calm,Calm,-,N/A,,Clear,0,2013-03-09 03:55:00
11:15 PM,28.4,24.4,85,30.27,10.0,Calm,Calm,-,N/A,,Clear,0,2013-03-09 04:15:00
11:35 PM,27.9,24.4,87,30.27,10.0,Calm,Calm,-,N/A,,Clear,0,2013-03-09 04:35:00
11:55 PM,28.2,23.5,83,30.27,10.0,Calm,Calm,-,N/A,,Clear,0,2013-03-09 04:55:00